Meteo Giornale » Osservazioni meteo Malaysia » Kuala Trengganu
ore: 13:00 - Osservazioni Meteo Kuala Trengganu
Lat. 5° 22' N Lon. 103° 5' E Alt. 6 metri s.l.m.
32 °C
Poco Nuvoloso
Temp. 24 Ore
24 °C
32 °C
Nord
7.4 Km/h
Dew point 27 °C
Umidità 74 %
Visibilità 10 Km
Il sole sorge alle ore 07:01
Il sole tramonta alle ore 19:14
| Data e Ora | Cielo e Fenomeni | T °C | DP °C | Um. % | Pres. hPa | Vis. km | Vento km/h | |
|---|---|---|---|---|---|---|---|---|
| Oggi h: 13:00 | Poco Nuvoloso | 32 | 27 | 74 | 1011 | 10 | N 7.4 | |
| Oggi h: 12:00 | Poco Nuvoloso | 32 | 27 | 74 | 1012 | 10 | N 5.5 | |
| Oggi h: 11:00 | Poco Nuvoloso | 31 | 25 | 70 | 1012 | 10 | N 5.5 | |
| Oggi h: 10:00 | Poco Nuvoloso | 29 | 26 | 83 | 1012 | 10 | S 7.4 | |
| Oggi h: 09:00 | Poco Nuvoloso | 27 | 24 | 83 | 1012 | 10 | S 7.4 | |
| Oggi h: 08:00 | Poco Nuvoloso | 25 | 24 | 94 | 1011 | 10 | N 3.7 | |
| Oggi h: 07:00 | Poco Nuvoloso | 24 | 23 | 94 | 1011 | 10 | N 3.7 | |
| Oggi h: 06:00 | Poco Nuvoloso | 25 | 23 | 88 | 1011 | 10 | N 3.7 | |
| Oggi h: 05:00 | Poco Nuvoloso | 25 | 23 | 88 | 1010 | 10 | N 5.5 | |
| Oggi h: 04:00 | Pioggia | 25 | 23 | 88 | 1011 | 10 | S/SO 7.4 | |
| Oggi h: 03:00 | Pioggia | 24 | 22 | 88 | 1010 | 10 | N 5.5 | |
| Oggi h: 02:00 | Temporale | 24 | 23 | 94 | 1011 | 3 | O 13 | |
| Oggi h: 01:00 | Temporale | 28 | 26 | 88 | 1012 | 10 | O/SO 11.1 | |
| Oggi h: 00:00 | Poco Nuvoloso | 28 | 26 | 88 | 1011 | 10 | N 0 | |
| Ieri h: 23:00 | Poco Nuvoloso | 28 | 26 | 88 | 1011 | 10 | N 0 | |
| Ieri h: 22:00 | Poco Nuvoloso | 28 | 25 | 83 | 1011 | 10 | N 0 | |
| Ieri h: 21:00 | Poco Nuvoloso | 28 | 25 | 83 | 1010 | 10 | N 0 | |
| Ieri h: 20:00 | Poco Nuvoloso | 29 | 25 | 79 | 1010 | 10 | S/SE 7.4 | |
| Ieri h: 19:00 | Poco Nuvoloso | 29 | 25 | 79 | 1009 | 10 | N 11.1 | |
| Ieri h: 18:00 | Poco Nuvoloso | 30 | 25 | 74 | 1008 | 10 | N 13 | |
| Ieri h: 17:00 | Poco Nuvoloso | 31 | 27 | 79 | 1008 | 9 | SE 16.7 | |
| Ieri h: 16:00 | Poco Nuvoloso | 31 | 26 | 74 | 1009 | 9 | SE 14.8 | |
| Ieri h: 15:00 | Poco Nuvoloso | 32 | 27 | 74 | 1009 | 10 | N 11.1 | |



